Weather History for Minot AFB, ND

Change the Weather History Date:

Monday, November 5, 2012

  Actual Average Record
Temperature  
Mean Temperature 39 °F -  
Max Temperature 46 °F 38 °F 71 °F (2001)
Min Temperature 32 °F 20 °F 3 °F (2003)
Degree Days  
Heating Degree Days 26    
Moisture  
Dew Point 33 °F    
Average Humidity 97    
Maximum Humidity 100    
Minimum Humidity 71    
Precipitation  
Precipitation 0.06 in - - ()
Sea Level Pressure  
Sea Level Pressure 30.12 in    
Wind  
Wind Speed 6 mph (SW)    
Max Wind Speed 28 mph    
Max Gust Speed 37 mph    
Visibility 5 miles    
Events Fog , Rain    
Averages and records for this station are not official NWS values.
T = Trace of Precipitation, MM = Missing Value Source: NWS Daily Summary

Daily Weather History Graph

Daily Weather History Graph

Search for Another Location

Airport:

Trip Planner

Search our weather history database for the weather conditions in past years. The results will help you decide how hot, cold, wet, or windy it might be!

Date:

Astronomy

Nov. 05, 2012 Rise Set
Actual Time 7:38 AM CST 5:18 PM CST
Civil Twilight 7:05 AM CST 5:52 PM CST
Nautical Twilight 6:27 AM CST 6:29 PM CST
Astronomical Twilight 5:51 AM CST 7:05 PM CST
Moon 10:59 PM CST (11/5) 12:59 PM CST (11/5)
Length of Visible Light 10h 47m
Length of Day
9h 40m
Waning Gibbous, 62% of the Moon is Illuminated
Nov 5
Waning Gibbous
Nov 6
Last Quarter
Nov 13
New
Nov 20
First Quarter
Nov 28
Full

Hourly Weather History & Observations

Time (CST) Temp. Windchill Dew Point Humidity Pressure Visibility Wind Dir Wind Speed Gust Speed Precip Events Conditions
12:01 AM 32.0 °F 27.5 °F 32.0 °F 100% 30.26 in 4.0 mi NNW 4.6 mph - N/A   Overcast
12:08 AM 32.0 °F 27.5 °F 32.0 °F 100% 30.26 in 4.0 mi NW 4.6 mph - N/A   Mostly Cloudy
12:12 AM 32.0 °F 27.5 °F 32.0 °F 100% 30.26 in 4.0 mi NW 4.6 mph - N/A   Overcast
12:13 AM 32.0 °F 28.7 °F 32.0 °F 100% 30.26 in 4.0 mi NW 3.5 mph - N/A   Overcast
12:14 AM 32.0 °F 28.7 °F 32.0 °F 100% 30.26 in 4.0 mi NW 3.5 mph - N/A   Overcast
12:24 AM 32.0 °F 28.7 °F 32.0 °F 100% 30.25 in 5.0 mi NNW 3.5 mph - N/A   Overcast
12:27 AM 32.0 °F 28.7 °F 32.0 °F 100% 30.25 in 5.0 mi NNW 3.5 mph - N/A   Overcast
12:34 AM 32.0 °F 28.7 °F 32.0 °F 100% 30.25 in 5.0 mi NW 3.5 mph - N/A   Overcast
12:35 AM 32.0 °F - 32.0 °F 100% 30.25 in 5.0 mi Calm Calm - N/A   Overcast
12:55 AM 32.4 °F - 32.0 °F 99% 30.25 in 6.0 mi Calm Calm - 0.01 in   Overcast
1:05 AM 32.0 °F - 32.0 °F 100% 30.25 in 5.0 mi Calm Calm - N/A   Overcast
1:08 AM 32.0 °F - 32.0 °F 100% 30.25 in 5.0 mi Calm Calm - N/A   Overcast
1:18 AM 32.0 °F 27.5 °F 32.0 °F 100% 30.25 in 5.0 mi WNW 4.6 mph - N/A   Overcast
1:27 AM 32.0 °F 28.7 °F 32.0 °F 100% 30.25 in 5.0 mi WNW 3.5 mph - N/A   Overcast
1:29 AM 32.0 °F 28.7 °F 32.0 °F 100% 30.25 in 5.0 mi WNW 3.5 mph - N/A   Overcast
1:36 AM 32.0 °F - 32.0 °F 100% 30.26 in 5.0 mi Calm Calm - N/A   Overcast
1:55 AM 32.2 °F - 32.0 °F 99% 30.25 in 4.0 mi Calm Calm - N/A   Overcast
2:02 AM 32.0 °F 28.7 °F 32.0 °F 100% 30.26 in 5.0 mi West 3.5 mph - N/A   Overcast
2:06 AM 32.0 °F - 32.0 °F 100% 30.26 in 5.0 mi Calm Calm - N/A   Overcast
2:15 AM 32.0 °F - 32.0 °F 100% 30.26 in 5.0 mi Calm Calm - N/A   Overcast
2:19 AM 32.0 °F - 32.0 °F 100% 30.26 in 5.0 mi Calm Calm - N/A   Overcast
2:30 AM 32.0 °F 28.7 °F 32.0 °F 100% 30.26 in 4.0 mi West 3.5 mph - N/A   Overcast
2:39 AM 32.0 °F - 32.0 °F 100% 30.26 in 4.0 mi Calm Calm - N/A   Overcast
2:45 AM 32.0 °F - 32.0 °F 100% 30.26 in 3.0 mi Calm Calm - N/A   Overcast
2:51 AM 32.0 °F - 32.0 °F 100% 30.26 in 3.0 mi Calm Calm - N/A   Overcast
2:55 AM 32.4 °F - 32.2 °F 99% 30.25 in 3.0 mi Calm Calm - N/A   Overcast
3:22 AM 32.0 °F 28.7 °F 32.0 °F 100% 30.24 in 4.0 mi SW 3.5 mph - N/A   Overcast
3:27 AM 32.0 °F 28.7 °F 32.0 °F 100% 30.24 in 4.0 mi SW 3.5 mph - N/A   Overcast
3:40 AM 32.0 °F 28.7 °F 32.0 °F 100% 30.23 in 4.0 mi SW 3.5 mph - N/A   Overcast
3:55 AM 32.5 °F 29.3 °F 32.4 °F 99% 30.23 in 4.0 mi SSW 3.5 mph - N/A   Overcast
4:29 AM 32.0 °F 28.7 °F 32.0 °F 100% 30.22 in 2.5 mi South 3.5 mph - N/A   Overcast
4:32 AM 32.0 °F 27.5 °F 32.0 °F 100% 30.21 in 2.5 mi South 4.6 mph - N/A   Overcast
4:55 AM 32.7 °F 28.3 °F 32.5 °F 99% 30.20 in 2.5 mi South 4.6 mph - N/A   Overcast
5:13 AM 32.0 °F 27.5 °F 32.0 °F 100% 30.21 in 1.8 mi SSW 4.6 mph - N/A   Overcast
5:16 AM 32.0 °F 27.5 °F 32.0 °F 100% 30.21 in 1.2 mi SSW 4.6 mph - N/A   Overcast
5:19 AM 32.0 °F 27.5 °F 32.0 °F 100% 30.20 in 1.0 mi SSW 4.6 mph - N/A   Mist
5:21 AM 32.0 °F 27.5 °F 32.0 °F 100% 30.20 in 1.0 mi SSW 4.6 mph - N/A   Mist
5:22 AM 32.0 °F 27.5 °F 32.0 °F 100% 30.20 in 1.0 mi SSW 4.6 mph - N/A   Mist
5:29 AM 32.0 °F 28.7 °F 32.0 °F 100% 30.20 in 0.8 mi SSW 3.5 mph - N/A   Mist
5:40 AM 33.8 °F 29.6 °F 32.0 °F 93% 30.20 in 0.8 mi SSW 4.6 mph - N/A   Mist
5:42 AM 33.8 °F 29.6 °F 32.0 °F 93% 30.20 in 0.5 mi SSW 4.6 mph - N/A Fog Fog
5:46 AM 33.8 °F 29.6 °F 32.0 °F 93% 30.20 in 0.8 mi SSW 4.6 mph - N/A   Mist
5:55 AM 32.9 °F 28.5 °F 32.7 °F 99% 30.20 in 0.8 mi SSW 4.6 mph - N/A   Mist
6:09 AM 32.0 °F 27.5 °F 32.0 °F 100% 30.19 in 1.0 mi South 4.6 mph - N/A   Overcast
6:11 AM 32.0 °F 27.5 °F 32.0 °F 100% 30.19 in 1.0 mi South 4.6 mph - N/A   Overcast
6:20 AM 32.0 °F 26.4 °F 32.0 °F 100% 30.18 in 1.0 mi SSW 5.8 mph - N/A   Overcast
6:22 AM 32.0 °F 27.5 °F 32.0 °F 100% 30.18 in 1.0 mi South 4.6 mph - N/A   Overcast
6:23 AM 32.0 °F 27.5 °F 32.0 °F 100% 30.18 in 1.0 mi South 4.6 mph - N/A   Overcast
6:26 AM 32.0 °F 27.5 °F 32.0 °F 100% 30.18 in 1.2 mi South 4.6 mph - N/A   Overcast
6:28 AM 32.0 °F 27.5 °F 32.0 °F 100% 30.18 in 1.5 mi South 4.6 mph - N/A   Overcast
6:44 AM 32.0 °F 26.4 °F 32.0 °F 100% 30.17 in 2.0 mi SSW 5.8 mph - N/A   Overcast
6:54 AM 32.0 °F 26.4 °F 32.0 °F 100% 30.17 in 2.0 mi SSW 5.8 mph - N/A   Overcast
6:55 AM 32.7 °F 27.3 °F 32.5 °F 99% 30.17 in 2.0 mi SSW 5.8 mph - N/A   Overcast
6:57 AM 32.0 °F 26.4 °F 32.0 °F 100% 30.17 in 2.5 mi SSW 5.8 mph - N/A   Overcast
6:59 AM 32.0 °F 26.4 °F 32.0 °F 100% 30.17 in 3.0 mi SSW 5.8 mph - N/A   Overcast
7:55 AM 32.9 °F 26.7 °F 32.7 °F 99% 30.14 in 9.0 mi SSW 6.9 mph - N/A   Overcast
7:57 AM 33.8 °F 27.7 °F 32.0 °F 93% 30.14 in 9.0 mi SSW 6.9 mph - N/A   Overcast
8:55 AM 33.8 °F 27.7 °F 32.7 °F 96% 30.12 in 10.0 mi South 6.9 mph - N/A   Overcast
9:55 AM 34.2 °F 24.4 °F 33.1 °F 96% 30.07 in 10.0 mi SSW 15.0 mph - N/A   Overcast
10:02 AM 33.8 °F 25.3 °F 33.8 °F 100% 30.07 in 10.0 mi South 11.5 mph - N/A   Overcast
10:17 AM 33.8 °F 24.3 °F 33.8 °F 100% 30.06 in 10.0 mi SSW 13.8 mph - N/A   Overcast
10:24 AM 33.8 °F 24.3 °F 33.8 °F 100% 30.06 in 10.0 mi SSW 13.8 mph - N/A   Overcast
10:43 AM 33.8 °F 23.9 °F 33.8 °F 100% 30.04 in 10.0 mi South 15.0 mph - N/A   Overcast
10:50 AM 33.8 °F 24.8 °F 33.8 °F 100% 30.03 in 10.0 mi South 12.7 mph - N/A   Overcast
10:55 AM 34.3 °F 24.6 °F 33.3 °F 96% 30.03 in 10.0 mi South 15.0 mph - N/A   Overcast
10:57 AM 33.8 °F 23.2 °F 33.8 °F 100% 30.02 in 10.0 mi South 17.3 mph - N/A   Overcast
11:55 AM 34.3 °F 25.9 °F 33.6 °F 97% 29.99 in 4.0 mi SSW 11.5 mph - N/A   Overcast
12:55 PM 34.5 °F 25.3 °F 33.4 °F 96% 29.92 in 10.0 mi South 13.8 mph - 0.00 in   Light Drizzle
12:57 PM 33.8 °F 24.8 °F 33.8 °F 100% 29.92 in 10.0 mi South 12.7 mph - N/A Rain Light Rain
1:55 PM 35.1 °F 25.2 °F 34.9 °F 99% 29.85 in 10.0 mi South 16.1 mph - 0.03 in Rain Light Rain
2:55 PM 36.1 °F 26.9 °F 35.6 °F 98% 29.80 in 10.0 mi South 15.0 mph - 0.02 in   Overcast
3:55 PM 39.4 °F 34.5 °F 38.5 °F 97% 29.78 in 10.0 mi South 6.9 mph - 0.00 in   Partly Cloudy
4:55 PM 40.3 °F 33.4 °F 38.5 °F 93% 29.74 in 10.0 mi SW 11.5 mph - N/A   Scattered Clouds
5:55 PM 42.3 °F 36.8 °F 39.9 °F 91% 29.77 in 10.0 mi WSW 9.2 mph - N/A   Overcast
6:24 PM 44.6 °F 36.9 °F 41.0 °F 87% 29.76 in 10.0 mi WNW 18.4 mph - N/A   Overcast
6:35 PM 46.4 °F 38.1 °F 42.8 °F 87% 29.77 in 10.0 mi WNW 24.2 mph 28.8 mph N/A   Overcast
6:55 PM 43.3 °F 33.8 °F 41.0 °F 91% 29.80 in 10.0 mi WNW 25.3 mph 33.4 mph N/A   Scattered Clouds
7:20 PM 42.8 °F 33.3 °F 39.2 °F 87% 29.80 in 10.0 mi WNW 24.2 mph 31.1 mph N/A   Mostly Cloudy
7:32 PM 41.0 °F 30.9 °F 39.2 °F 93% 29.81 in 10.0 mi WNW 24.2 mph 33.4 mph N/A   Scattered Clouds
7:55 PM 41.2 °F 30.5 °F 37.8 °F 88% 29.82 in 10.0 mi NW 27.6 mph 36.8 mph N/A   Clear
8:55 PM 38.7 °F 28.6 °F 34.9 °F 86% 29.85 in 10.0 mi WNW 20.7 mph 27.6 mph N/A   Clear
9:55 PM 38.5 °F 29.2 °F 34.3 °F 85% 29.88 in 10.0 mi WNW 17.3 mph - N/A   Clear
10:55 PM 39.6 °F 30.0 °F 32.0 °F 74% 29.88 in 10.0 mi WNW 19.6 mph 27.6 mph N/A   Clear
11:55 PM 39.2 °F 29.0 °F 30.6 °F 71% 29.89 in 10.0 mi WNW 21.9 mph - N/A   Clear